MD4008 Weather Reports


time (UTC)temp
F
wind
direction
speed
knots
gust
knots
rain 1hr
in
rain 24hr
in
rain mn
in
humidity
%
barometer
mb
20260505101554 32 134 0.0 0.0 0.00 0.00 0.00 95 1007.6
20260505100123 32 134 0.0 0.0 0.00 0.00 0.00 94 1007.3
20260505094505 32 134 0.0 0.0 0.00 0.00 0.00 94 1007.5
20260505093019 32 134 0.0 0.0 0.00 0.00 0.00 94 1007.3
20260505091555 32 134 0.0 0.0 0.00 0.00 0.00 94 1007.5
20260505090011 32 138 0.0 0.0 0.00 0.00 0.00 94 1007.3
20260505084551 32 137 0.0 0.0 0.00 0.00 0.00 94 1007.2
20260505083017 32 143 0.9 0.0 0.00 0.00 0.00 93 1007.2
20260505081550 33 156 0.0 0.0 0.00 0.00 0.00 92 1007.3
20260505080103 35 171 0.0 0.0 0.00 0.00 0.00 93 1007.3
20260505074504 36 174 0.0 0.0 0.00 0.00 0.00 93 1007.2
20260505073016 37 163 0.9 0.0 0.00 0.00 0.00 92 1007.3
20260505071541 37 135 0.0 0.0 0.00 0.00 0.00 92 1007.0
20260505070114 38 132 0.0 0.0 0.00 0.00 0.00 92 1006.9
20260505064516 37 88 0.0 0.0 0.00 0.00 0.00 92 1006.8
20260505063055 37 88 0.0 0.0 0.00 0.00 0.00 91 1006.8
20260505061621 37 88 0.0 0.0 0.00 0.00 0.00 91 1006.6
20260505060127 37 100 0.0 0.0 0.00 0.00 0.00 91 1006.7
20260505054530 37 103 0.9 0.0 0.00 0.00 0.00 91 1006.5
20260505053057 37 169 4.3 0.0 0.00 0.00 0.00 91 1006.1
20260505051506 37 161 2.6 0.0 0.00 0.00 0.00 90 1005.8
20260505041526 43 138 0.0 0.0 0.00 0.00 0.00 88 1005.4
20260505040100 44 138 0.0 0.0 0.00 0.00 0.00 87 1005.3
20260505034604 44 139 0.0 0.0 0.00 0.00 0.00 86 1005.1
20260505033045 44 138 0.0 0.0 0.00 0.00 0.00 83 1004.9
20260505031501 44 136 0.0 0.0 0.00 0.00 0.00 84 1004.6
20260505030011 45 136 0.0 0.0 0.00 0.00 0.00 82 1004.2
20260505024606 45 133 0.9 0.0 0.00 0.00 0.00 78 1004.0
20260505023011 46 169 0.9 0.0 0.00 0.00 0.00 76 1003.9
20260505021608 46 166 1.7 0.0 0.00 0.00 0.00 76 1003.7
20260505020002 47 170 3.5 0.0 0.00 0.00 0.00 73 1003.6
20260505014530 49 180 0.9 0.0 0.00 0.00 0.00 63 1003.3
20260505013058 49 94 0.0 0.0 0.00 0.00 0.00 62 1003.2
20260505011526 49 66 0.0 0.0 0.00 0.00 0.00 63 1003.0
20260505010047 49 66 0.0 0.0 0.00 0.00 0.00 63 1002.9
20260505004604 49 51 0.0 0.0 0.00 0.00 0.00 63 1002.9
20260505003021 49 49 0.0 0.0 0.00 0.00 0.00 63 1003.0
20260505001550 49 22 2.6 0.0 0.00 0.00 0.00 62 1003.1
20260505000120 50 53 4.3 0.0 0.00 0.00 0.00 60 1003.2
20260504234523 52 43 2.6 0.0 0.00 0.00 0.00 54 1003.0
20260504233046 53 292 2.6 0.0 0.00 0.00 0.00 51 1002.8
20260504231557 55 292 1.7 0.0 0.00 0.00 0.00 48 1002.7
20260504230004 55 346 1.7 0.0 0.00 0.00 0.00 48 1002.5
20260504224534 55 22 0.9 0.0 0.00 0.00 0.00 47 1002.4
20260504223053 55 276 0.9 0.0 0.00 0.00 0.00 49 1002.4
20260504221510 55 5 0.0 0.0 0.00 0.00 0.00 48 1002.3
20260504220137 55 30 0.0 0.0 0.00 0.00 0.00 46 1002.6
20260504214513 54 332 0.9 0.0 0.00 0.00 0.00 50 1002.9
20260504213046 53 59 2.6 0.0 0.00 0.00 0.00 50 1003.0
20260504211605 54 17 1.7 0.0 0.00 0.00 0.00 45 1002.9
20260504210011 55 101 0.9 0.0 0.00 0.00 0.00 44 1002.8
20260504204602 56 138 3.5 0.0 0.00 0.00 0.00 41 1002.7
20260504203011 56 140 5.2 0.0 0.00 0.00 0.00 40 1002.1
20260504201552 57 135 7.8 0.0 0.00 0.00 0.00 40 1001.9
20260504200125 57 140 6.1 0.0 0.00 0.00 0.00 43 1002.1
20260504194526 54 150 3.5 0.0 0.00 0.00 0.00 43 1002.7
20260504193053 54 117 0.9 0.0 0.00 0.00 0.00 42 1003.1
20260504191558 54 69 2.6 0.0 0.00 0.00 0.00 41 1002.6
20260504190010 52 37 7.0 0.0 0.00 0.00 0.00 46 1002.7
20260504184538 53 20 7.8 0.0 0.00 0.00 0.00 43 1003.0
20260504183056 59 39 1.7 0.0 0.00 0.00 0.00 25 1001.9
20260504181611 60 54 6.1 0.0 0.00 0.00 0.00 24 1001.5
20260504180122 60 53 3.5 0.0 0.00 0.00 0.00 23 1001.3
20260504174529 62 61 6.1 0.0 0.00 0.00 0.00 24 1001.5
20260504173053 61 53 4.3 0.0 0.00 0.00 0.00 22 1001.6
20260504171515 63 342 7.8 0.0 0.00 0.00 0.00 20 1001.7
20260504150125 59 24 3.5 0.0 0.00 0.00 0.00 25 1001.9
20260504130115 47 50 1.7 0.0 0.00 0.00 0.00 34 1002.3
20260504120120 44 57 1.7 0.0 0.00 0.00 0.00 39 1002.2